Time,TemperatureF,DewpointF,PressureIn,WindDirection,WindDirectionDegrees,WindSpeedMPH,WindSpeedGustMPH,Humidity,HourlyPrecipIn,Conditions,Clouds,dailyrainin,SoftwareType,DateUTC
2013-08-30 00:01:00,79.6,72.0,28.89,SSW,202,0.0,2.0,78,0.00,,,0.00,Rainwise IP-100,2013-08-30 05:01:00,
2013-08-30 00:06:00,79.8,71.0,28.88,WSW,247,1.4,3.0,76,0.00,,,0.00,Rainwise IP-100,2013-08-30 05:06:00,
2013-08-30 00:11:00,79.8,71.0,28.89,WSW,247,1.4,3.0,75,0.00,,,0.00,Rainwise IP-100,2013-08-30 05:11:00,
2013-08-30 00:16:00,79.9,71.0,28.89,SSW,202,1.6,1.6,75,0.00,,,0.00,Rainwise IP-100,2013-08-30 05:16:00,
2013-08-30 00:21:00,79.9,71.0,28.89,SE,135,0.0,3.0,75,0.00,,,0.00,Rainwise IP-100,2013-08-30 05:21:00,
2013-08-30 00:26:00,79.9,71.0,28.89,South,180,0.0,3.0,75,0.00,,,0.00,Rainwise IP-100,2013-08-30 05:26:00,
2013-08-30 00:31:00,80.0,71.0,28.89,West,270,1.4,3.0,75,0.00,,,0.00,Rainwise IP-100,2013-08-30 05:31:00,
2013-08-30 00:36:00,80.1,71.0,28.88,WSW,247,0.0,3.0,75,0.00,,,0.00,Rainwise IP-100,2013-08-30 05:36:00,
2013-08-30 00:41:00,80.0,71.0,28.88,SW,225,0.0,2.0,75,0.00,,,0.00,Rainwise IP-100,2013-08-30 05:41:00,
2013-08-30 00:46:00,79.9,71.0,28.89,SSW,202,0.0,1.0,75,0.00,,,0.00,Rainwise IP-100,2013-08-30 05:46:00,
2013-08-30 00:51:00,79.9,71.0,28.89,SSW,202,1.2,1.2,75,0.00,,,0.00,Rainwise IP-100,2013-08-30 05:51:00,
2013-08-30 00:56:00,79.9,71.0,28.89,SSW,202,0.0,2.0,75,0.00,,,0.00,Rainwise IP-100,2013-08-30 05:56:00,
2013-08-30 01:01:00,80.0,71.0,28.88,SSW,202,0.0,2.0,75,0.00,,,0.00,Rainwise IP-100,2013-08-30 06:01:00,
2013-08-30 01:06:00,79.9,71.0,28.89,SW,225,0.0,1.0,75,0.00,,,0.00,Rainwise IP-100,2013-08-30 06:06:00,
2013-08-30 01:11:00,79.8,71.0,28.88,SW,225,0.0,2.0,75,0.00,,,0.00,Rainwise IP-100,2013-08-30 06:11:00,
2013-08-30 01:16:00,79.8,71.0,28.89,South,180,0.0,3.0,75,0.00,,,0.00,Rainwise IP-100,2013-08-30 06:16:00,
2013-08-30 01:21:00,79.9,71.0,28.88,SSW,202,0.0,2.0,75,0.00,,,0.00,Rainwise IP-100,2013-08-30 06:21:00,
2013-08-30 01:26:00,79.9,71.0,28.88,South,180,0.0,5.0,75,0.00,,,0.00,Rainwise IP-100,2013-08-30 06:26:00,
2013-08-30 01:31:00,79.8,71.0,28.88,SW,225,1.6,4.0,75,0.00,,,0.00,Rainwise IP-100,2013-08-30 06:31:00,
2013-08-30 01:36:00,79.7,71.0,28.88,SSW,202,1.9,2.0,75,0.00,,,0.00,Rainwise IP-100,2013-08-30 06:36:00,
2013-08-30 01:41:00,79.7,71.0,28.88,WSW,247,0.0,3.0,75,0.00,,,0.00,Rainwise IP-100,2013-08-30 06:41:00,
2013-08-30 01:46:00,79.6,71.0,28.88,SSW,202,0.0,3.0,76,0.00,,,0.00,Rainwise IP-100,2013-08-30 06:46:00,
2013-08-30 01:51:00,79.5,71.0,28.87,SSW,202,0.0,4.0,76,0.00,,,0.00,Rainwise IP-100,2013-08-30 06:51:00,
2013-08-30 01:56:00,79.5,71.0,28.87,SW,225,3.3,4.0,75,0.00,,,0.00,Rainwise IP-100,2013-08-30 06:56:00,
2013-08-30 02:01:00,79.5,71.0,28.88,WSW,247,3.0,7.0,75,0.00,,,0.00,Rainwise IP-100,2013-08-30 07:01:00,
2013-08-30 02:06:00,79.4,71.0,28.87,SW,225,0.0,4.0,75,0.00,,,0.00,Rainwise IP-100,2013-08-30 07:06:00,
2013-08-30 02:11:00,79.1,70.0,28.88,WSW,247,3.5,4.0,75,0.00,,,0.00,Rainwise IP-100,2013-08-30 07:11:00,
2013-08-30 02:16:00,78.9,71.0,28.87,WSW,247,1.2,3.0,76,0.00,,,0.00,Rainwise IP-100,2013-08-30 07:16:00,
2013-08-30 02:21:00,78.8,70.0,28.87,SW,225,2.6,5.0,76,0.00,,,0.00,Rainwise IP-100,2013-08-30 07:21:00,
2013-08-30 02:26:00,78.7,71.0,28.87,WSW,247,2.3,4.0,77,0.00,,,0.00,Rainwise IP-100,2013-08-30 07:26:00,
2013-08-30 02:31:00,78.6,71.0,28.87,WSW,247,4.7,8.0,77,0.00,,,0.00,Rainwise IP-100,2013-08-30 07:31:00,
2013-08-30 02:36:00,78.5,71.0,28.87,SSW,202,1.4,8.0,78,0.00,,,0.00,Rainwise IP-100,2013-08-30 07:36:00,
2013-08-30 02:41:00,78.4,71.0,28.87,WSW,247,2.3,3.0,78,0.00,,,0.00,Rainwise IP-100,2013-08-30 07:41:00,
2013-08-30 02:46:00,78.3,71.0,28.87,WSW,247,0.0,4.0,78,0.00,,,0.00,Rainwise IP-100,2013-08-30 07:46:00,
2013-08-30 02:51:00,78.3,71.0,28.87,SW,225,1.4,7.0,79,0.00,,,0.00,Rainwise IP-100,2013-08-30 07:51:00,
2013-08-30 02:56:00,78.2,71.0,28.87,WSW,247,2.6,5.0,80,0.00,,,0.00,Rainwise IP-100,2013-08-30 07:56:00,
2013-08-30 03:01:00,78.1,71.0,28.87,WNW,292,1.9,4.0,80,0.00,,,0.00,Rainwise IP-100,2013-08-30 08:01:00,
2013-08-30 03:06:00,78.0,72.0,28.87,WSW,247,4.9,5.0,81,0.00,,,0.00,Rainwise IP-100,2013-08-30 08:06:00,
2013-08-30 03:11:00,78.0,72.0,28.87,WSW,247,3.0,4.0,82,0.00,,,0.00,Rainwise IP-100,2013-08-30 08:11:00,
2013-08-30 03:16:00,78.1,72.0,28.87,WSW,247,4.9,9.0,82,0.00,,,0.00,Rainwise IP-100,2013-08-30 08:16:00,
2013-08-30 03:21:00,78.3,72.0,28.87,WSW,247,6.8,10.0,83,0.00,,,0.00,Rainwise IP-100,2013-08-30 08:21:00,
2013-08-30 03:26:00,78.1,72.0,28.87,WSW,247,9.3,10.0,83,0.00,,,0.00,Rainwise IP-100,2013-08-30 08:26:00,
2013-08-30 03:31:00,77.9,72.0,28.87,WSW,247,8.6,10.0,83,0.00,,,0.00,Rainwise IP-100,2013-08-30 08:31:00,
2013-08-30 03:36:00,77.7,72.0,28.87,SW,225,6.5,13.0,84,0.00,,,0.00,Rainwise IP-100,2013-08-30 08:36:00,
2013-08-30 03:41:00,77.4,72.0,28.87,WSW,247,8.4,9.0,84,0.00,,,0.00,Rainwise IP-100,2013-08-30 08:41:00,
2013-08-30 03:46:00,77.2,72.0,28.87,WSW,247,5.8,9.0,85,0.00,,,0.00,Rainwise IP-100,2013-08-30 08:46:00,
2013-08-30 03:51:00,77.1,72.0,28.87,West,270,4.7,10.0,85,0.00,,,0.00,Rainwise IP-100,2013-08-30 08:51:00,
2013-08-30 03:56:00,76.9,72.0,28.87,SW,225,5.4,13.0,86,0.00,,,0.00,Rainwise IP-100,2013-08-30 08:56:00,
2013-08-30 04:01:00,76.8,72.0,28.87,WSW,247,7.7,10.0,86,0.00,,,0.00,Rainwise IP-100,2013-08-30 09:01:00,
2013-08-30 04:06:00,76.7,72.0,28.87,WSW,247,7.2,9.0,86,0.00,,,0.00,Rainwise IP-100,2013-08-30 09:06:00,
2013-08-30 04:11:00,76.6,72.0,28.88,WSW,247,6.1,10.0,87,0.00,,,0.00,Rainwise IP-100,2013-08-30 09:11:00,
2013-08-30 04:16:00,76.5,72.0,28.88,WNW,292,4.9,9.0,87,0.00,,,0.00,Rainwise IP-100,2013-08-30 09:16:00,
2013-08-30 04:21:00,76.4,72.0,28.87,WSW,247,7.5,8.0,87,0.00,,,0.00,Rainwise IP-100,2013-08-30 09:21:00,
2013-08-30 04:26:00,76.2,72.0,28.88,West,270,2.1,9.0,88,0.00,,,0.00,Rainwise IP-100,2013-08-30 09:26:00,
2013-08-30 04:31:00,76.1,72.0,28.88,SW,225,2.8,8.0,88,0.00,,,0.00,Rainwise IP-100,2013-08-30 09:31:00,
2013-08-30 04:36:00,75.9,72.0,28.88,WNW,292,4.2,8.0,89,0.00,,,0.00,Rainwise IP-100,2013-08-30 09:36:00,
2013-08-30 04:41:00,75.7,72.0,28.88,WNW,292,1.9,11.0,89,0.00,,,0.00,Rainwise IP-100,2013-08-30 09:41:00,
2013-08-30 04:46:00,75.5,71.0,28.88,WNW,292,6.5,10.0,88,0.00,,,0.00,Rainwise IP-100,2013-08-30 09:46:00,
2013-08-30 04:51:00,75.4,71.0,28.88,West,270,4.2,8.0,88,0.00,,,0.00,Rainwise IP-100,2013-08-30 09:51:00,
2013-08-30 04:56:00,75.3,71.0,28.89,NW,315,4.7,11.0,88,0.00,,,0.00,Rainwise IP-100,2013-08-30 09:56:00,
2013-08-30 05:01:00,75.2,71.0,28.88,WNW,292,5.4,11.0,88,0.00,,,0.00,Rainwise IP-100,2013-08-30 10:01:00,
2013-08-30 05:06:00,75.1,71.0,28.89,West,270,5.6,9.0,88,0.00,,,0.00,Rainwise IP-100,2013-08-30 10:06:00,
2013-08-30 05:11:00,75.0,71.0,28.89,WNW,292,4.7,8.0,88,0.00,,,0.00,Rainwise IP-100,2013-08-30 10:11:00,
2013-08-30 05:16:00,74.8,71.0,28.89,WNW,292,2.8,7.0,87,0.00,,,0.00,Rainwise IP-100,2013-08-30 10:16:00,
2013-08-30 05:21:00,74.6,71.0,28.89,NW,315,4.7,8.0,87,0.00,,,0.00,Rainwise IP-100,2013-08-30 10:21:00,
2013-08-30 05:26:00,74.4,71.0,28.89,WNW,292,4.2,6.0,88,0.00,,,0.00,Rainwise IP-100,2013-08-30 10:26:00,
2013-08-30 05:31:00,74.3,71.0,28.89,West,270,3.0,8.0,88,0.00,,,0.00,Rainwise IP-100,2013-08-30 10:31:00,
2013-08-30 05:36:00,74.2,71.0,28.89,WNW,292,2.1,8.0,88,0.00,,,0.00,Rainwise IP-100,2013-08-30 10:36:00,
2013-08-30 05:41:00,74.0,70.0,28.89,WNW,292,4.2,10.0,88,0.00,,,0.00,Rainwise IP-100,2013-08-30 10:41:00,
2013-08-30 05:46:00,73.8,70.0,28.89,West,270,3.0,7.0,88,0.00,,,0.00,Rainwise IP-100,2013-08-30 10:46:00,
2013-08-30 05:51:00,73.7,70.0,28.90,WNW,292,7.0,10.0,88,0.00,,,0.00,Rainwise IP-100,2013-08-30 10:51:00,
2013-08-30 05:56:00,73.5,70.0,28.90,WNW,292,5.4,10.0,88,0.00,,,0.00,Rainwise IP-100,2013-08-30 10:56:00,
2013-08-30 06:01:00,73.4,69.0,28.90,West,270,2.6,7.0,88,0.00,,,0.00,Rainwise IP-100,2013-08-30 11:01:00,
2013-08-30 06:06:00,73.3,69.0,28.90,North,360,2.3,10.0,88,0.00,,,0.00,Rainwise IP-100,2013-08-30 11:06:00,
2013-08-30 06:11:00,73.2,70.0,28.90,NW,315,4.7,8.0,89,0.00,,,0.00,Rainwise IP-100,2013-08-30 11:11:00,
2013-08-30 06:16:00,73.0,69.0,28.90,WNW,292,4.9,9.0,89,0.00,,,0.00,Rainwise IP-100,2013-08-30 11:16:00,
2013-08-30 06:21:00,72.8,69.0,28.91,NNW,337,2.6,5.0,89,0.00,,,0.00,Rainwise IP-100,2013-08-30 11:21:00,
2013-08-30 06:26:00,72.7,69.0,28.91,WNW,292,4.0,5.0,90,0.00,,,0.00,Rainwise IP-100,2013-08-30 11:26:00,
2013-08-30 06:31:00,72.6,69.0,28.90,NNE,22,5.8,9.0,90,0.00,,,0.00,Rainwise IP-100,2013-08-30 11:31:00,
2013-08-30 06:36:00,72.5,69.0,28.91,North,360,9.1,9.1,90,0.00,,,0.00,Rainwise IP-100,2013-08-30 11:36:00,
2013-08-30 06:41:00,72.5,69.0,28.91,NW,315,5.1,10.0,90,0.00,,,0.00,Rainwise IP-100,2013-08-30 11:41:00,
2013-08-30 06:46:00,72.3,69.0,28.91,NNW,337,3.0,10.0,91,0.00,,,0.00,Rainwise IP-100,2013-08-30 11:46:00,
2013-08-30 06:50:00,72.3,69.0,28.91,North,360,2.8,8.0,91,0.00,,,0.00,Rainwise IP-100,2013-08-30 11:50:00,
2013-08-30 06:55:00,72.3,69.0,28.91,NW,315,6.1,7.0,91,0.00,,,0.00,Rainwise IP-100,2013-08-30 11:55:00,
2013-08-30 07:00:00,72.3,69.0,28.91,NNW,337,4.4,6.0,91,0.00,,,0.00,Rainwise IP-100,2013-08-30 12:00:00,
2013-08-30 07:05:00,72.3,69.0,28.92,West,270,5.6,9.0,91,0.00,,,0.00,Rainwise IP-100,2013-08-30 12:05:00,
2013-08-30 07:10:00,72.2,69.0,28.92,NNW,337,7.9,10.0,91,0.00,,,0.00,Rainwise IP-100,2013-08-30 12:10:00,
2013-08-30 07:15:00,72.1,69.0,28.93,NNW,337,4.0,9.0,91,0.00,,,0.00,Rainwise IP-100,2013-08-30 12:15:00,
2013-08-30 07:20:00,72.0,69.0,28.92,North,360,5.1,9.0,92,0.00,,,0.00,Rainwise IP-100,2013-08-30 12:20:00,
2013-08-30 07:25:00,72.0,69.0,28.92,WNW,292,4.0,14.0,92,0.00,,,0.00,Rainwise IP-100,2013-08-30 12:25:00,
2013-08-30 07:30:00,71.8,69.0,28.92,North,360,9.3,11.0,91,0.00,,,0.00,Rainwise IP-100,2013-08-30 12:30:00,
2013-08-30 07:35:00,71.8,69.0,28.92,NNW,337,2.8,11.0,91,0.00,,,0.00,Rainwise IP-100,2013-08-30 12:35:00,
2013-08-30 07:40:00,71.9,69.0,28.93,WNW,292,4.9,10.0,92,0.00,,,0.00,Rainwise IP-100,2013-08-30 12:40:00,
2013-08-30 07:45:00,71.8,69.0,28.93,North,360,5.6,12.0,92,0.00,,,0.00,Rainwise IP-100,2013-08-30 12:45:00,
2013-08-30 07:50:00,71.8,69.0,28.93,NNE,22,4.0,8.0,92,0.00,,,0.00,Rainwise IP-100,2013-08-30 12:50:00,
2013-08-30 07:55:00,71.7,69.0,28.94,NW,315,5.1,7.0,92,0.00,,,0.00,Rainwise IP-100,2013-08-30 12:55:00,
2013-08-30 08:00:00,71.5,69.0,28.94,WNW,292,6.1,13.0,92,0.00,,,0.00,Rainwise IP-100,2013-08-30 13:00:00,
2013-08-30 08:05:00,71.4,69.0,28.94,NNW,337,4.2,12.0,92,0.00,,,0.00,Rainwise IP-100,2013-08-30 13:05:00,
2013-08-30 08:10:00,71.4,69.0,28.94,NNW,337,3.0,9.0,92,0.00,,,0.00,Rainwise IP-100,2013-08-30 13:10:00,
2013-08-30 08:15:00,71.3,68.0,28.94,NNW,337,4.7,12.0,91,0.00,,,0.00,Rainwise IP-100,2013-08-30 13:15:00,
2013-08-30 08:20:00,71.1,68.0,28.94,WNW,292,7.9,9.0,91,0.00,,,0.00,Rainwise IP-100,2013-08-30 13:20:00,
2013-08-30 08:25:00,71.1,68.0,28.95,NNE,22,6.1,11.0,91,0.00,,,0.00,Rainwise IP-100,2013-08-30 13:25:00,
2013-08-30 08:30:00,71.1,68.0,28.95,NE,45,10.0,11.0,91,0.00,,,0.00,Rainwise IP-100,2013-08-30 13:30:00,
2013-08-30 08:35:00,71.0,68.0,28.95,WNW,292,3.3,13.0,92,0.00,,,0.00,Rainwise IP-100,2013-08-30 13:35:00,
2013-08-30 08:40:00,70.7,67.0,28.95,NNW,337,3.3,10.0,91,0.00,,,0.00,Rainwise IP-100,2013-08-30 13:40:00,
2013-08-30 08:45:00,70.7,67.0,28.95,NNW,337,3.7,10.0,91,0.00,,,0.00,Rainwise IP-100,2013-08-30 13:45:00,
2013-08-30 08:50:00,70.7,67.0,28.95,NNW,337,6.5,10.0,90,0.00,,,0.00,Rainwise IP-100,2013-08-30 13:50:00,
2013-08-30 08:55:00,70.7,67.0,28.95,NNE,22,6.1,9.0,90,0.00,,,0.00,Rainwise IP-100,2013-08-30 13:55:00,
2013-08-30 09:00:00,70.7,67.0,28.95,North,360,7.9,11.0,90,0.00,,,0.00,Rainwise IP-100,2013-08-30 14:00:00,
2013-08-30 09:05:00,70.8,67.0,28.95,NNE,22,9.1,10.0,90,0.00,,,0.00,Rainwise IP-100,2013-08-30 14:05:00,
2013-08-30 09:10:00,70.9,67.0,28.96,NE,45,5.6,10.0,89,0.00,,,0.00,Rainwise IP-100,2013-08-30 14:10:00,
2013-08-30 09:15:00,71.0,66.0,28.96,NNE,22,9.6,14.0,87,0.00,,,0.00,Rainwise IP-100,2013-08-30 14:15:00,
2013-08-30 09:20:00,71.0,66.0,28.96,North,360,4.7,12.0,86,0.00,,,0.00,Rainwise IP-100,2013-08-30 14:20:00,
2013-08-30 09:25:00,71.1,66.0,28.96,NE,45,4.2,11.0,86,0.00,,,0.00,Rainwise IP-100,2013-08-30 14:25:00,
2013-08-30 09:30:00,71.1,66.0,28.97,NE,45,5.6,10.0,86,0.00,,,0.00,Rainwise IP-100,2013-08-30 14:30:00,
2013-08-30 09:35:00,71.3,66.0,28.97,NNE,22,5.6,9.0,86,0.00,,,0.00,Rainwise IP-100,2013-08-30 14:35:00,
2013-08-30 09:40:00,71.3,66.0,28.96,NNE,22,6.8,11.0,86,0.00,,,0.00,Rainwise IP-100,2013-08-30 14:40:00,
2013-08-30 09:45:00,71.3,66.0,28.96,NNW,337,4.7,11.0,86,0.00,,,0.00,Rainwise IP-100,2013-08-30 14:45:00,
2013-08-30 09:50:00,71.2,66.0,28.97,NNW,337,4.7,10.0,85,0.00,,,0.00,Rainwise IP-100,2013-08-30 14:50:00,
2013-08-30 09:54:00,71.0,66.0,28.97,NNE,22,3.7,13.0,85,0.00,,,0.00,Rainwise IP-100,2013-08-30 14:54:00,
2013-08-30 09:59:00,70.9,66.0,28.97,NNE,22,7.9,14.0,85,0.00,,,0.00,Rainwise IP-100,2013-08-30 14:59:00,
2013-08-30 10:04:00,70.8,66.0,28.97,North,360,5.8,11.0,85,0.00,,,0.00,Rainwise IP-100,2013-08-30 15:04:00,
2013-08-30 10:09:00,70.6,65.0,28.98,NNE,22,10.0,12.0,84,0.00,,,0.00,Rainwise IP-100,2013-08-30 15:09:00,
2013-08-30 10:14:00,70.5,65.0,28.98,NE,45,5.6,15.0,84,0.00,,,0.00,Rainwise IP-100,2013-08-30 15:14:00,
2013-08-30 10:19:00,70.6,65.0,28.98,NE,45,10.3,15.0,83,0.00,,,0.00,Rainwise IP-100,2013-08-30 15:19:00,
2013-08-30 10:24:00,70.7,65.0,28.98,North,360,14.9,14.9,82,0.00,,,0.00,Rainwise IP-100,2013-08-30 15:24:00,
2013-08-30 10:29:00,70.8,64.0,28.98,NNW,337,9.8,14.0,81,0.00,,,0.00,Rainwise IP-100,2013-08-30 15:29:00,
2013-08-30 10:34:00,70.8,64.0,28.98,WNW,292,3.5,13.0,81,0.00,,,0.00,Rainwise IP-100,2013-08-30 15:34:00,
2013-08-30 10:39:00,71.0,65.0,28.98,NNW,337,6.3,13.0,81,0.00,,,0.00,Rainwise IP-100,2013-08-30 15:39:00,
2013-08-30 10:44:00,71.0,64.0,28.97,WNW,292,7.0,15.0,80,0.00,,,0.00,Rainwise IP-100,2013-08-30 15:44:00,
2013-08-30 10:49:00,71.0,64.0,28.98,West,270,7.2,14.0,80,0.00,,,0.00,Rainwise IP-100,2013-08-30 15:49:00,
2013-08-30 10:54:00,71.1,64.0,28.98,NW,315,10.0,17.0,80,0.00,,,0.00,Rainwise IP-100,2013-08-30 15:54:00,
2013-08-30 10:59:00,71.3,65.0,28.98,NNE,22,2.6,11.0,80,0.00,,,0.00,Rainwise IP-100,2013-08-30 15:59:00,
2013-08-30 11:04:00,71.5,65.0,28.98,NW,315,6.1,11.0,80,0.00,,,0.00,Rainwise IP-100,2013-08-30 16:04:00,
2013-08-30 11:09:00,71.6,65.0,28.98,NE,45,3.5,9.0,80,0.00,,,0.00,Rainwise IP-100,2013-08-30 16:09:00,
2013-08-30 11:14:00,71.7,65.0,28.98,North,360,4.9,10.0,81,0.00,,,0.00,Rainwise IP-100,2013-08-30 16:14:00,
2013-08-30 11:19:00,71.6,65.0,28.98,NE,45,7.2,9.0,81,0.00,,,0.00,Rainwise IP-100,2013-08-30 16:19:00,
2013-08-30 11:24:00,71.5,65.0,28.98,ENE,67,3.5,11.0,80,0.00,,,0.00,Rainwise IP-100,2013-08-30 16:24:00,
2013-08-30 11:29:00,71.6,65.0,28.98,NNW,337,8.4,12.0,80,0.00,,,0.00,Rainwise IP-100,2013-08-30 16:29:00,
2013-08-30 11:34:00,71.6,65.0,28.98,NNE,22,9.1,17.0,79,0.00,,,0.00,Rainwise IP-100,2013-08-30 16:34:00,
2013-08-30 11:39:00,71.6,65.0,28.98,NE,45,8.9,14.0,79,0.00,,,0.00,Rainwise IP-100,2013-08-30 16:39:00,
2013-08-30 11:44:00,72.1,65.0,28.98,NNE,22,4.9,13.0,78,0.00,,,0.00,Rainwise IP-100,2013-08-30 16:44:00,
2013-08-30 11:49:00,72.7,65.0,28.98,NNE,22,9.6,13.0,77,0.00,,,0.00,Rainwise IP-100,2013-08-30 16:49:00,
2013-08-30 11:54:00,72.5,65.0,28.98,NNE,22,10.5,12.0,77,0.00,,,0.00,Rainwise IP-100,2013-08-30 16:54:00,
2013-08-30 11:59:00,72.6,65.0,28.98,NNE,22,4.0,13.0,77,0.00,,,0.00,Rainwise IP-100,2013-08-30 16:59:00,
2013-08-30 12:04:00,73.1,65.0,28.98,NNE,22,9.8,14.0,76,0.00,,,0.00,Rainwise IP-100,2013-08-30 17:04:00,
2013-08-30 12:09:00,73.1,65.0,28.98,ENE,67,9.8,12.0,76,0.00,,,0.00,Rainwise IP-100,2013-08-30 17:09:00,
2013-08-30 12:14:00,73.2,65.0,28.98,NNW,337,5.6,13.0,75,0.00,,,0.00,Rainwise IP-100,2013-08-30 17:14:00,
2013-08-30 12:19:00,74.0,66.0,28.98,North,360,4.4,13.0,75,0.00,,,0.00,Rainwise IP-100,2013-08-30 17:19:00,
2013-08-30 12:24:00,74.3,66.0,28.97,NNE,22,9.6,12.0,74,0.00,,,0.00,Rainwise IP-100,2013-08-30 17:24:00,
2013-08-30 12:29:00,73.8,65.0,28.98,North,360,4.9,9.0,75,0.00,,,0.00,Rainwise IP-100,2013-08-30 17:29:00,
2013-08-30 12:34:00,74.1,66.0,28.98,NE,45,8.4,9.0,75,0.00,,,0.00,Rainwise IP-100,2013-08-30 17:34:00,
2013-08-30 12:39:00,74.1,65.0,28.98,NNE,22,4.9,11.0,74,0.00,,,0.00,Rainwise IP-100,2013-08-30 17:39:00,
2013-08-30 12:44:00,74.0,65.0,28.98,NNW,337,5.8,9.0,74,0.00,,,0.00,Rainwise IP-100,2013-08-30 17:44:00,
2013-08-30 12:49:00,74.3,65.0,28.98,North,360,7.7,12.0,73,0.00,,,0.00,Rainwise IP-100,2013-08-30 17:49:00,
2013-08-30 12:54:00,73.9,65.0,28.98,NE,45,6.1,13.0,74,0.00,,,0.00,Rainwise IP-100,2013-08-30 17:54:00,
2013-08-30 12:59:00,73.7,65.0,28.97,NE,45,9.8,11.0,74,0.00,,,0.00,Rainwise IP-100,2013-08-30 17:59:00,
2013-08-30 13:01:00,73.7,65.0,28.98,NNE,22,9.6,13.0,74,0.00,,,0.00,Rainwise IP-100,2013-08-30 18:01:00,
2013-08-30 13:06:00,74.0,65.0,28.97,NW,315,6.8,12.0,73,0.00,,,0.00,Rainwise IP-100,2013-08-30 18:06:00,
2013-08-30 13:11:00,74.4,65.0,28.97,North,360,7.0,12.0,73,0.00,,,0.00,Rainwise IP-100,2013-08-30 18:11:00,
2013-08-30 13:16:00,74.9,65.0,28.97,North,360,4.0,10.0,72,0.00,,,0.00,Rainwise IP-100,2013-08-30 18:16:00,
2013-08-30 13:21:00,75.1,65.0,28.97,NNE,22,11.0,13.0,72,0.00,,,0.00,Rainwise IP-100,2013-08-30 18:21:00,
2013-08-30 13:26:00,75.0,65.0,28.97,North,360,9.3,11.0,72,0.00,,,0.00,Rainwise IP-100,2013-08-30 18:26:00,
2013-08-30 13:31:00,75.1,65.0,28.97,NNE,22,5.1,11.0,72,0.00,,,0.00,Rainwise IP-100,2013-08-30 18:31:00,
2013-08-30 13:36:00,75.4,66.0,28.97,NW,315,4.0,9.0,72,0.00,,,0.00,Rainwise IP-100,2013-08-30 18:36:00,
2013-08-30 13:41:00,75.7,65.0,28.97,NNE,22,4.9,9.0,71,0.00,,,0.00,Rainwise IP-100,2013-08-30 18:41:00,
2013-08-30 13:46:00,75.6,65.0,28.98,North,360,5.1,9.0,71,0.00,,,0.00,Rainwise IP-100,2013-08-30 18:46:00,
2013-08-30 13:51:00,75.2,65.0,28.97,NNE,22,5.1,10.0,72,0.00,,,0.00,Rainwise IP-100,2013-08-30 18:51:00,
2013-08-30 13:56:00,75.3,65.0,28.97,NNE,22,3.5,9.0,72,0.00,,,0.00,Rainwise IP-100,2013-08-30 18:56:00,
2013-08-30 14:01:00,75.9,66.0,28.97,NE,45,5.8,8.0,71,0.00,,,0.00,Rainwise IP-100,2013-08-30 19:01:00,
2013-08-30 14:06:00,76.2,66.0,28.98,ENE,67,4.7,9.0,71,0.00,,,0.00,Rainwise IP-100,2013-08-30 19:06:00,
2013-08-30 14:11:00,76.2,66.0,28.97,North,360,4.4,7.0,71,0.00,,,0.00,Rainwise IP-100,2013-08-30 19:11:00,
2013-08-30 14:16:00,77.1,66.0,28.97,NNE,22,5.8,8.0,70,0.00,,,0.00,Rainwise IP-100,2013-08-30 19:16:00,
2013-08-30 14:21:00,77.5,66.0,28.97,NE,45,4.2,8.0,69,0.00,,,0.00,Rainwise IP-100,2013-08-30 19:21:00,
2013-08-30 14:26:00,76.9,66.0,28.98,NNE,22,6.1,10.0,69,0.00,,,0.00,Rainwise IP-100,2013-08-30 19:26:00,
2013-08-30 14:31:00,76.8,66.0,28.97,North,360,8.2,9.0,69,0.00,,,0.00,Rainwise IP-100,2013-08-30 19:31:00,
2013-08-30 14:36:00,77.2,66.0,28.96,ENE,67,5.8,8.0,69,0.00,,,0.00,Rainwise IP-100,2013-08-30 19:36:00,
2013-08-30 14:41:00,77.5,66.0,28.97,NNE,22,5.1,10.0,69,0.00,,,0.00,Rainwise IP-100,2013-08-30 19:41:00,
2013-08-30 14:46:00,77.9,66.0,28.96,NE,45,6.8,10.0,68,0.00,,,0.00,Rainwise IP-100,2013-08-30 19:46:00,
2013-08-30 14:51:00,78.4,66.0,28.96,ENE,67,1.9,7.0,67,0.00,,,0.00,Rainwise IP-100,2013-08-30 19:51:00,
2013-08-30 14:56:00,78.6,66.0,28.96,NNE,22,2.6,6.0,67,0.00,,,0.00,Rainwise IP-100,2013-08-30 19:56:00,
2013-08-30 15:01:00,79.0,66.0,28.96,North,360,5.6,7.0,66,0.00,,,0.00,Rainwise IP-100,2013-08-30 20:01:00,
2013-08-30 15:06:00,79.1,66.0,28.96,East,90,2.8,10.0,66,0.00,,,0.00,Rainwise IP-100,2013-08-30 20:06:00,
2013-08-30 15:11:00,78.9,66.0,28.95,North,360,5.6,7.0,66,0.00,,,0.00,Rainwise IP-100,2013-08-30 20:11:00,
2013-08-30 15:16:00,79.1,66.0,28.95,NNE,22,4.2,10.0,66,0.00,,,0.00,Rainwise IP-100,2013-08-30 20:16:00,
2013-08-30 15:21:00,79.2,66.0,28.95,NNE,22,1.9,9.0,65,0.00,,,0.00,Rainwise IP-100,2013-08-30 20:21:00,
2013-08-30 15:26:00,79.3,66.0,28.95,NNE,22,4.4,8.0,65,0.00,,,0.00,Rainwise IP-100,2013-08-30 20:26:00,
2013-08-30 15:31:00,79.3,66.0,28.95,NE,45,9.6,11.0,65,0.00,,,0.00,Rainwise IP-100,2013-08-30 20:31:00,
2013-08-30 15:36:00,78.9,66.0,28.95,NNE,22,5.6,11.0,65,0.00,,,0.00,Rainwise IP-100,2013-08-30 20:36:00,
2013-08-30 15:41:00,78.5,66.0,28.95,ENE,67,7.5,11.0,66,0.00,,,0.00,Rainwise IP-100,2013-08-30 20:41:00,
2013-08-30 15:46:00,78.7,66.0,28.95,ENE,67,7.0,10.0,66,0.00,,,0.00,Rainwise IP-100,2013-08-30 20:46:00,
2013-08-30 15:51:00,78.8,66.0,28.95,ENE,67,8.6,13.0,66,0.00,,,0.00,Rainwise IP-100,2013-08-30 20:51:00,
2013-08-30 15:56:00,78.9,66.0,28.95,NE,45,5.1,13.0,65,0.00,,,0.00,Rainwise IP-100,2013-08-30 20:56:00,
2013-08-30 16:01:00,79.3,66.0,28.95,NE,45,5.6,8.0,65,0.00,,,0.00,Rainwise IP-100,2013-08-30 21:01:00,
2013-08-30 16:06:00,79.3,66.0,28.95,NE,45,4.2,11.0,65,0.00,,,0.00,Rainwise IP-100,2013-08-30 21:06:00,
2013-08-30 16:11:00,79.4,66.0,28.94,NE,45,6.1,10.0,64,0.00,,,0.00,Rainwise IP-100,2013-08-30 21:11:00,
2013-08-30 16:16:00,79.7,66.0,28.94,NNW,337,4.7,10.0,65,0.00,,,0.00,Rainwise IP-100,2013-08-30 21:16:00,
2013-08-30 16:21:00,80.4,67.0,28.94,NNE,22,3.7,6.0,64,0.00,,,0.00,Rainwise IP-100,2013-08-30 21:21:00,
2013-08-30 16:26:00,81.1,67.0,28.93,NNE,22,8.9,8.9,63,0.00,,,0.00,Rainwise IP-100,2013-08-30 21:26:00,
2013-08-30 16:31:00,80.6,66.0,28.93,ENE,67,3.5,12.0,63,0.00,,,0.00,Rainwise IP-100,2013-08-30 21:31:00,
2013-08-30 16:36:00,80.4,66.0,28.93,NNE,22,4.4,7.0,63,0.00,,,0.00,Rainwise IP-100,2013-08-30 21:36:00,
2013-08-30 16:41:00,80.8,67.0,28.93,NNE,22,1.9,7.0,63,0.00,,,0.00,Rainwise IP-100,2013-08-30 21:41:00,
2013-08-30 16:46:00,81.4,67.0,28.93,NNE,22,2.1,6.0,62,0.00,,,0.00,Rainwise IP-100,2013-08-30 21:46:00,
2013-08-30 16:51:00,81.4,66.0,28.93,North,360,4.7,11.0,61,0.00,,,0.00,Rainwise IP-100,2013-08-30 21:51:00,
2013-08-30 16:56:00,81.1,66.0,28.93,NNE,22,5.1,9.0,62,0.00,,,0.00,Rainwise IP-100,2013-08-30 21:56:00,
2013-08-30 17:01:00,81.1,66.0,28.93,NNE,22,4.2,8.0,62,0.00,,,0.00,Rainwise IP-100,2013-08-30 22:01:00,
2013-08-30 17:06:00,81.1,66.0,28.93,NNW,337,8.4,8.4,61,0.00,,,0.00,Rainwise IP-100,2013-08-30 22:06:00,
2013-08-30 17:11:00,81.0,66.0,28.92,North,360,3.7,10.0,61,0.00,,,0.00,Rainwise IP-100,2013-08-30 22:11:00,
2013-08-30 17:16:00,80.7,66.0,28.93,North,360,2.1,9.0,62,0.00,,,0.00,Rainwise IP-100,2013-08-30 22:16:00,
2013-08-30 17:21:00,80.6,66.0,28.93,NNE,22,4.7,5.0,62,0.00,,,0.00,Rainwise IP-100,2013-08-30 22:21:00,
2013-08-30 17:26:00,80.5,66.0,28.93,NNE,22,2.6,7.0,63,0.00,,,0.00,Rainwise IP-100,2013-08-30 22:26:00,
2013-08-30 17:31:00,80.3,66.0,28.93,NE,45,7.7,10.0,63,0.00,,,0.00,Rainwise IP-100,2013-08-30 22:31:00,
2013-08-30 17:36:00,80.2,66.0,28.93,NE,45,5.8,11.0,63,0.00,,,0.00,Rainwise IP-100,2013-08-30 22:36:00,
2013-08-30 17:41:00,80.2,66.0,28.93,NNE,22,6.8,7.0,63,0.00,,,0.00,Rainwise IP-100,2013-08-30 22:41:00,
2013-08-30 17:46:00,80.4,66.0,28.93,NNE,22,8.2,8.2,62,0.00,,,0.00,Rainwise IP-100,2013-08-30 22:46:00,
2013-08-30 17:51:00,80.6,66.0,28.93,NE,45,5.8,8.0,62,0.00,,,0.00,Rainwise IP-100,2013-08-30 22:51:00,
2013-08-30 17:56:00,80.6,66.0,28.93,ENE,67,9.3,9.3,62,0.00,,,0.00,Rainwise IP-100,2013-08-30 22:56:00,
2013-08-30 18:01:00,80.5,66.0,28.93,ENE,67,3.5,9.0,63,0.00,,,0.00,Rainwise IP-100,2013-08-30 23:01:00,
2013-08-30 18:06:00,80.5,66.0,28.92,ENE,67,7.9,7.9,63,0.00,,,0.00,Rainwise IP-100,2013-08-30 23:06:00,
2013-08-30 18:11:00,80.7,67.0,28.93,NE,45,3.5,8.0,63,0.00,,,0.00,Rainwise IP-100,2013-08-30 23:11:00,
2013-08-30 18:16:00,81.0,66.0,28.92,NNE,22,4.4,9.0,62,0.00,,,0.00,Rainwise IP-100,2013-08-30 23:16:00,
2013-08-30 18:21:00,81.1,66.0,28.93,NNE,22,4.0,8.0,62,0.00,,,0.00,Rainwise IP-100,2013-08-30 23:21:00,
2013-08-30 18:26:00,81.1,66.0,28.93,NNE,22,3.0,8.0,62,0.00,,,0.00,Rainwise IP-100,2013-08-30 23:26:00,
2013-08-30 18:31:00,81.3,66.0,28.92,NNE,22,4.4,8.0,61,0.00,,,0.00,Rainwise IP-100,2013-08-30 23:31:00,
2013-08-30 18:36:00,81.4,66.0,28.93,NNE,22,2.6,9.0,61,0.00,,,0.00,Rainwise IP-100,2013-08-30 23:36:00,
2013-08-30 18:41:00,81.1,66.0,28.93,NNE,22,3.7,7.0,61,0.00,,,0.00,Rainwise IP-100,2013-08-30 23:41:00,
2013-08-30 18:46:00,81.0,66.0,28.92,NE,45,4.2,5.0,61,0.00,,,0.00,Rainwise IP-100,2013-08-30 23:46:00,
2013-08-30 18:51:00,81.1,66.0,28.93,North,360,5.4,6.0,62,0.00,,,0.00,Rainwise IP-100,2013-08-30 23:51:00,
2013-08-30 18:56:00,81.2,66.0,28.92,NNE,22,5.4,7.0,61,0.00,,,0.00,Rainwise IP-100,2013-08-30 23:56:00,
2013-08-30 19:01:00,81.1,66.0,28.93,NE,45,4.2,6.0,61,0.00,,,0.00,Rainwise IP-100,2013-08-31 00:01:00,
2013-08-30 19:06:00,80.8,66.0,28.92,NE,45,4.7,5.0,61,0.00,,,0.00,Rainwise IP-100,2013-08-31 00:06:00,
2013-08-30 19:11:00,80.5,66.0,28.92,NNE,22,3.7,6.0,62,0.00,,,0.00,Rainwise IP-100,2013-08-31 00:11:00,
2013-08-30 19:16:00,80.2,66.0,28.92,NE,45,3.3,5.0,63,0.00,,,0.00,Rainwise IP-100,2013-08-31 00:16:00,
2013-08-30 19:21:00,80.0,66.0,28.92,NE,45,4.2,5.0,63,0.00,,,0.00,Rainwise IP-100,2013-08-31 00:21:00,
2013-08-30 19:26:00,79.7,66.0,28.92,NNE,22,4.9,5.0,64,0.00,,,0.00,Rainwise IP-100,2013-08-31 00:26:00,
2013-08-30 19:31:00,79.6,66.0,28.93,NNE,22,3.7,5.0,65,0.00,,,0.00,Rainwise IP-100,2013-08-31 00:31:00,
2013-08-30 19:36:00,79.5,66.0,28.92,NNE,22,3.5,5.0,64,0.00,,,0.00,Rainwise IP-100,2013-08-31 00:36:00,
2013-08-30 19:41:00,79.2,66.0,28.93,NE,45,2.6,5.0,65,0.00,,,0.00,Rainwise IP-100,2013-08-31 00:41:00,
2013-08-30 19:46:00,78.8,66.0,28.92,NE,45,4.7,5.0,66,0.00,,,0.00,Rainwise IP-100,2013-08-31 00:46:00,
2013-08-30 19:51:00,78.6,66.0,28.92,NE,45,4.4,6.0,67,0.00,,,0.00,Rainwise IP-100,2013-08-31 00:51:00,
2013-08-30 19:56:00,78.3,66.0,28.92,NE,45,4.2,5.0,67,0.00,,,0.00,Rainwise IP-100,2013-08-31 00:56:00,
2013-08-30 20:01:00,78.1,66.0,28.91,NE,45,4.0,5.0,68,0.00,,,0.00,Rainwise IP-100,2013-08-31 01:01:00,
2013-08-30 20:06:00,77.9,66.0,28.92,NNE,22,2.8,4.0,68,0.00,,,0.00,Rainwise IP-100,2013-08-31 01:06:00,
2013-08-30 20:11:00,77.7,66.0,28.93,North,360,2.8,4.0,68,0.00,,,0.00,Rainwise IP-100,2013-08-31 01:11:00,
2013-08-30 20:16:00,77.5,66.0,28.93,NNW,337,2.1,4.0,68,0.00,,,0.00,Rainwise IP-100,2013-08-31 01:16:00,
2013-08-30 20:21:00,77.3,66.0,28.92,North,360,1.9,4.0,69,0.00,,,0.00,Rainwise IP-100,2013-08-31 01:21:00,
2013-08-30 20:26:00,77.1,66.0,28.93,North,360,2.3,3.0,70,0.00,,,0.00,Rainwise IP-100,2013-08-31 01:26:00,
2013-08-30 20:31:00,76.8,67.0,28.93,North,360,1.9,4.0,72,0.00,,,0.00,Rainwise IP-100,2013-08-31 01:31:00,
2013-08-30 20:36:00,76.6,66.0,28.93,North,360,0.0,3.0,72,0.00,,,0.00,Rainwise IP-100,2013-08-31 01:36:00,
2013-08-30 20:41:00,76.4,66.0,28.92,NNE,22,2.6,4.0,72,0.00,,,0.00,Rainwise IP-100,2013-08-31 01:41:00,
2013-08-30 20:46:00,76.4,67.0,28.92,NE,45,2.3,3.0,73,0.00,,,0.00,Rainwise IP-100,2013-08-31 01:46:00,
2013-08-30 20:51:00,76.4,67.0,28.92,NE,45,2.1,3.0,73,0.00,,,0.00,Rainwise IP-100,2013-08-31 01:51:00,
2013-08-30 20:56:00,76.2,67.0,28.93,NE,45,0.0,3.0,74,0.00,,,0.00,Rainwise IP-100,2013-08-31 01:56:00,
2013-08-30 21:01:00,76.0,67.0,28.92,NE,45,0.0,1.0,75,0.00,,,0.00,Rainwise IP-100,2013-08-31 02:01:00,
2013-08-30 21:06:00,75.8,67.0,28.93,NNW,337,0.0,1.0,75,0.00,,,0.00,Rainwise IP-100,2013-08-31 02:06:00,
2013-08-30 21:11:00,75.5,67.0,28.92,NNE,22,2.3,2.3,75,0.00,,,0.00,Rainwise IP-100,2013-08-31 02:11:00,
2013-08-30 21:16:00,75.6,67.0,28.92,ENE,67,2.6,3.0,75,0.00,,,0.00,Rainwise IP-100,2013-08-31 02:16:00,
2013-08-30 21:21:00,75.9,67.0,28.92,ENE,67,2.1,3.0,76,0.00,,,0.00,Rainwise IP-100,2013-08-31 02:21:00,
2013-08-30 21:26:00,75.6,67.0,28.93,ENE,67,1.2,2.0,76,0.00,,,0.00,Rainwise IP-100,2013-08-31 02:26:00,
2013-08-30 21:31:00,75.3,67.0,28.92,NNE,22,0.0,1.0,77,0.00,,,0.00,Rainwise IP-100,2013-08-31 02:31:00,
2013-08-30 21:36:00,75.2,67.0,28.93,NNE,22,1.4,2.0,77,0.00,,,0.00,Rainwise IP-100,2013-08-31 02:36:00,
2013-08-30 21:41:00,75.2,67.0,28.92,NE,45,2.8,3.0,77,0.00,,,0.00,Rainwise IP-100,2013-08-31 02:41:00,
2013-08-30 21:46:00,75.4,68.0,28.92,NE,45,3.3,3.3,77,0.00,,,0.00,Rainwise IP-100,2013-08-31 02:46:00,
2013-08-30 21:51:00,75.5,68.0,28.92,ENE,67,3.3,4.0,77,0.00,,,0.00,Rainwise IP-100,2013-08-31 02:51:00,
2013-08-30 21:56:00,75.3,68.0,28.92,ENE,67,4.2,4.2,78,0.00,,,0.00,Rainwise IP-100,2013-08-31 02:56:00,
2013-08-30 22:01:00,75.2,68.0,28.91,NE,45,3.5,5.0,78,0.00,,,0.00,Rainwise IP-100,2013-08-31 03:01:00,
2013-08-30 22:06:00,75.2,67.0,28.92,ENE,67,2.6,5.0,77,0.00,,,0.00,Rainwise IP-100,2013-08-31 03:06:00,
2013-08-30 22:11:00,75.1,67.0,28.92,NE,45,4.0,6.0,76,0.00,,,0.00,Rainwise IP-100,2013-08-31 03:11:00,
2013-08-30 22:16:00,75.2,66.0,28.92,NNE,22,2.1,5.0,75,0.00,,,0.00,Rainwise IP-100,2013-08-31 03:16:00,
2013-08-30 22:21:00,75.2,66.0,28.92,NE,45,1.9,4.0,75,0.00,,,0.00,Rainwise IP-100,2013-08-31 03:21:00,
2013-08-30 22:26:00,75.1,67.0,28.92,NNE,22,3.0,4.0,76,0.00,,,0.00,Rainwise IP-100,2013-08-31 03:26:00,
2013-08-30 22:31:00,75.0,67.0,28.92,NNE,22,4.0,5.0,76,0.00,,,0.00,Rainwise IP-100,2013-08-31 03:31:00,
2013-08-30 22:36:00,74.9,66.0,28.92,ENE,67,4.2,5.0,75,0.00,,,0.00,Rainwise IP-100,2013-08-31 03:36:00,
2013-08-30 22:41:00,74.9,66.0,28.92,NE,45,4.2,5.0,75,0.00,,,0.00,Rainwise IP-100,2013-08-31 03:41:00,
2013-08-30 22:46:00,74.6,66.0,28.92,NE,45,4.4,5.0,76,0.00,,,0.00,Rainwise IP-100,2013-08-31 03:46:00,
2013-08-30 22:51:00,74.5,66.0,28.92,ENE,67,5.8,6.0,76,0.00,,,0.00,Rainwise IP-100,2013-08-31 03:51:00,
2013-08-30 22:56:00,74.4,66.0,28.92,ENE,67,3.0,6.0,76,0.00,,,0.00,Rainwise IP-100,2013-08-31 03:56:00,
2013-08-30 23:01:00,74.3,66.0,28.92,ENE,67,4.2,6.0,76,0.00,,,0.00,Rainwise IP-100,2013-08-31 04:01:00,
2013-08-30 23:06:00,74.2,66.0,28.92,NE,45,4.9,6.0,77,0.00,,,0.00,Rainwise IP-100,2013-08-31 04:06:00,
2013-08-30 23:11:00,74.0,66.0,28.92,ENE,67,4.4,7.0,76,0.00,,,0.00,Rainwise IP-100,2013-08-31 04:11:00,
2013-08-30 23:16:00,74.1,66.0,28.93,NE,45,4.0,5.0,76,0.00,,,0.00,Rainwise IP-100,2013-08-31 04:16:00,
2013-08-30 23:21:00,74.2,66.0,28.93,ENE,67,5.6,6.0,76,0.00,,,0.00,Rainwise IP-100,2013-08-31 04:21:00,
2013-08-30 23:26:00,74.3,66.0,28.92,NE,45,3.0,7.0,76,0.00,,,0.00,Rainwise IP-100,2013-08-31 04:26:00,
2013-08-30 23:31:00,74.3,66.0,28.93,ENE,67,5.1,8.0,76,0.00,,,0.00,Rainwise IP-100,2013-08-31 04:31:00,
2013-08-30 23:36:00,74.3,66.0,28.93,ENE,67,5.4,6.0,75,0.00,,,0.00,Rainwise IP-100,2013-08-31 04:36:00,
2013-08-30 23:41:00,74.2,66.0,28.93,NE,45,4.2,6.0,75,0.00,,,0.00,Rainwise IP-100,2013-08-31 04:41:00,
2013-08-30 23:46:00,74.0,66.0,28.92,NE,45,4.4,7.0,76,0.00,,,0.00,Rainwise IP-100,2013-08-31 04:46:00,
2013-08-30 23:51:00,73.9,66.0,28.92,NE,45,4.4,7.0,76,0.00,,,0.00,Rainwise IP-100,2013-08-31 04:51:00,
2013-08-30 23:56:00,74.0,66.0,28.93,ENE,67,5.4,10.0,75,0.00,,,0.00,Rainwise IP-100,2013-08-31 04:56:00,